Location: Amherst
(42.5000°N, 72.5000°W)
Time: 14:45:19

ISS - Pass Details

Date: 15 March 2018
Orbit: 403 x 406 km, 51.6° (Epoch: 21 March)

Event Time Altitude Azimuth Distance (km) Brightness Sun altitude
Exits shadow 05:40:28 15° 323° (NW) 1,198 -1.7 -15.8°
Maximum altitude 05:42:46 34° 24° (NNE) 691 -2.4 -15.4°
Drops below altitude 10° 05:45:47 10° 92° (E) 1,460 0.3 -14.8°
Sets 05:47:59 0° 102° (ESE) 2,317 1.4 -14.4°
